Starlink 6321

operational
NORAD ID: 57340 Int'l Des: 2023-099 Owner: SPXS Country: US Constellation: starlink
LEOCIRCULAR

About Starlink 6321

Description loading...

Live Position

Loading 3D Globe...

Upcoming Passes

Altitude History

Altitude vs Time

uPlot chart will show altitude changes over time

Two-Line Element Set

1 57340U 23099N 25350.96427630 .00000178 00000-0 28229-4 0 9997
2 57340 43.0046 338.3818 0001148 267.0938 92.9773 15.02536116133678
Epoch: Dec 16, 2025 • Age: 26 hours

Current Status

Altitude 559.4 km
Velocity 7.59 km/s
Sub-Earth Point 25.05°N, 97.03°W
Launch Date Jul 16, 2023
Age 2.4 years
Type internet

Technical Details

Classification Payload
Mass 305.00 kg
Dry Mass 290.00 kg
Total Mass 305.00 kg
Length 0.20 m
Diameter 2.80 m
Span 9.00 m
Shape Box + pan
Manufacturer SPXS
Bus Type Starlink
Phase Status In Orbit
Owner/State SPXS/US

Large Constellations

Loading constellations...